Kosmos-1250

operational
NORAD ID: 12320 Int'l Des: 1981-022 Owner: GUKOS Country: SU
LEOCIRCULAR

About Kosmos-1250

Description loading...

Live Position

Loading 3D Globe...

Upcoming Passes

Altitude History

Altitude vs Time

uPlot chart will show altitude changes over time

Two-Line Element Set

1 12320U 81022A 26063.20576479 .00000024 00000-0 23842-3 0 9996
2 12320 74.0293 132.3251 0052850 218.0992 171.6138 12.58280171 66704
Epoch: Mar 4, 2026 • Age: 17 hours

Current Status

Altitude 1431.7 km
Velocity 7.15 km/s
Sub-Earth Point 44.40°N, 121.1°W
Launch Date Mar 6, 1981
Age 44.9 years
Type other

Technical Details

Classification Payload
Mass 60.00 kg
Dry Mass 60.00 kg
Total Mass 60.00 kg
Length 0.80 m
Diameter 0.80 m
Span 0.80 m
Shape Poly
Manufacturer NPOPM
Bus Type Strela-1 11F625
Phase Status In Orbit
Owner/State GUKOS/SU

Large Constellations

Loading constellations...